Regional Weather Roundup
Issued by NWS

Home | Current Version | Previous Version | Text Only | Print | Product List | Glossary Off
Versions: 1 2 3 4 5 6 7 8 9 10 11 12 13 14 15 16 17 18 19 20 21 22 23 24 25 26 27 28 29 30 31 32 33 34 35 36 37 38 39 40 41 42 43 44 45 46 47 48 49 50

000
ASUS43 KDMX 221406
RWRIA

WEATHER ROUNDUP FOR IOWA
NATIONAL WEATHER SERVICE DES MOINES IA
900 AM CDT SUN APR 22 2018

NOTE: "FAIR" INDICATES FEW OR NO CLOUDS BELOW 12,000 FEET WITH NO
SIGNIFICANT WEATHER AND/OR OBSTRUCTIONS TO VISIBILITY.

* - THESE STATIONS ARE NOT NWS STATIONS...THUS NOT UNDER NWS
QUALITY CONTROL.  THEY ALSO DO NOT REPORT WEATHER SUCH
AS PRECIPITATION OR FOG.

IAZ001>003-012>014-020>022-031>034-043>046-221500-
   NORTHWEST IOWA

CITY           SKY/WX    TMP DP  RH WIND       PRES   REMARKS
CARROLL *      PTSUNNY   46  36  66 E13       30.26F
CHEROKEE *     MOSUNNY   47  37  69 E10       30.29S
DENISON *      CLOUDY    48  34  57 E13G18    30.27S
LE MARS *      PTSUNNY   41  36  81 NE6       30.30R
ORANGE CITY *  MOSUNNY   45  39  81 E6        30.30S
SHELDON *      MOSUNNY   43  39  87 E8        30.29S
SIOUX CITY     PTSUNNY   48  35  60 N3        30.29R
SPENCER        CLOUDY    42  35  76 E6        30.31R
STORM LAKE *   SUNNY     43  36  75 E9        30.28S
$$

IAZ055>058-069>071-079>083-090>094-221500-
   SOUTHWEST IOWA

CITY           SKY/WX    TMP DP  RH WIND       PRES   REMARKS
ATLANTIC *     MOSUNNY   50  32  50 E10       30.24R
AUDUBON *      MOSUNNY   48  34  57 E8G16     30.26R
CLARINDA *     CLOUDY    52  32  46 E8G15     30.23R
COUNCIL BLFS * CLOUDY    50  34  53 E12G17    30.22S
CRESTON *      CLOUDY    50  30  46 E16       30.22S
HARLAN  *      CLOUDY    48  32  53 E12       30.28R
LAMONI         CLOUDY    50  31  48 E12       30.20S
RED OAK *      CLOUDY    52  34  50 NE12      30.22S
SHENANDOAH *   MOSUNNY   52  32  46 NE13      30.21S
$$

IAZ047>049-059>061-072>074-084-221500-
   CENTRAL IOWA

CITY           SKY/WX    TMP DP  RH WIND       PRES   REMARKS
AMES           PTSUNNY   50  30  46 E12       30.28S
ANKENY *       CLOUDY    48  30  49 E9        30.28S
BOONE *        CLOUDY    48  32  53 E12       30.27R
CHARITON *     CLOUDY    48  30  49 E14       30.23S
DES MOINES     CLOUDY    50  29  44 E13       30.26S
GRINNELL*      CLOUDY    48  28  46 E13       30.28S
KNOXVILLE *    CLOUDY    50  27  40 E13G21    30.24R
MARSHALLTOWN   MOSUNNY   48  32  53 E15       30.28F
NEWTON *       MOSUNNY   50  28  43 E17G23    30.27S
PELLA *        CLOUDY    50  27  40 E8        30.27S
PERRY *        FAIR      47  29  47 E14       30.26S
$$

IAZ004>006-015-016-023>025-035-036-221500-
   NORTH CENTRAL IOWA

CITY           SKY/WX    TMP DP  RH WIND       PRES   REMARKS
ALGONA *       PTSUNNY   46  36  66 E10G17    30.32S
CLARION *      SUNNY     48  36  61 E12       30.31S
ESTHERVILLE    MOSUNNY   35  32  88 NE6       30.32R WCI  30
FORT DODGE *   SUNNY     49  36  61 E14       30.29F
MASON CITY     PTSUNNY   41  37  86 NE5       30.35R
FOREST CITY *  FAIR      43  34  70 E7        30.33S
WEBSTER CITY * SUNNY     50  34  53 E15       30.27F
IOWA FALLS *   FAIR      48  33  56 E12       30.31F
$$

IAZ007>011-017>019-026>030-037>042-050>054-066-221500-
   NORTHEAST IOWA

CITY           SKY/WX    TMP DP  RH WIND       PRES   REMARKS
CEDAR RAPIDS   FAIR      52  25  35 E17       30.28F
CHARLES CITY * FAIR      48  34  57 E7        30.34S
CLINTON *      FAIR      52  25  35 E17       30.32F
DECORAH *      PTSUNNY   46  32  57 E8        30.34S
DUBUQUE        FAIR      50  24  36 E6        30.35R
MONTICELLO *   FAIR      50  23  34 E8        30.33S
OELWEIN *      FAIR      50  30  46 E10       30.33S
WATERLOO       FAIR      50  29  44 E12       30.32S
$$

IAZ064-065-067-068-078-221500-
   EAST CENTRAL IOWA

CITY           SKY/WX    TMP DP  RH WIND       PRES   REMARKS
DAVENPORT      FAIR      50  26  39 E14       30.32F
IOWA CITY      FAIR      52  24  33 E14       30.30F
MT. PLEASANT * CLOUDY    50  28  43 E15       30.26S
MUSCATINE *    FAIR      52  25  35 E14       30.29F
QUAD CITIES    FAIR      52  27  38 E13       30.30F
$$

IAZ062-063-075>077-085>089-095>099-221500-
   SOUTHEAST IOWA

CITY           SKY/WX    TMP DP  RH WIND       PRES   REMARKS
BURLINGTON     CLOUDY    50  29  44 E12       30.25R
FAIRFIELD *    CLOUDY    48  28  46 E14       30.25S
FORT MADISON * MOSUNNY   52  32  46 E8        30.25S
KEOKUK *       MOSUNNY   52  32  46 E12G18    30.22S
OSKALOOSA *    FAIR      49  28  43 E15       30.26S
CENTERVILLE *    N/A     50  30  46 E10       30.23F
OTTUMWA        PTSUNNY   49  29  46 E16       30.25S
WASHINGTON *   CLOUDY    50  27  40 E17       30.28R
$$

ABBREVIATIONS USED IN REMARKS
   TC - TEMPERATURES IN CELSIUS
  WCI - WIND CHILL INDEX
   HX - HEAT INDEX
  VSB - VISIBILITY
$$





USA.gov is the U.S. government's official web portal to all federal, state and local government web resources and services.